Powrót do katalogu

BREEZE-M R/B

AktywnyHEO
NORAD 36587·ROCKET BODY·🇷🇺 Russia

Wystrzelony Dec 29, 2009 z Baikonur Cosmodrome

Loading…

Następne Przeloty (najbliższe 24 godziny)

TLE

ŚwieżeSource: Space-Track

Epoka: Sep 14, 2026, 03:50 UTC

1 36587U 09075B   26257.16002096 -.00000190  00000-0  00000-0 0  9997
2 36587  21.4982 304.2037 5764629 127.9030 330.7622  1.99403210118885

Śledź BREEZE-M R/B w czasie rzeczywistym z AllMySat

Download on the App Store